TimeCDT,TemperatureF,Dew PointF,Humidity,Sea Level PressureIn,VisibilityMPH,Wind Direction,Wind SpeedMPH,Gust SpeedMPH,PrecipitationIn,Events,Conditions,WindDirDegrees,DateUTC
12:54 AM,51.1,46.0,83,30.09,10.0,Calm,Calm,-,N/A,,Clear,0,2013-05-05 05:54:00
1:54 AM,54.0,46.0,75,30.08,10.0,NE,4.6,-,N/A,,Overcast,50,2013-05-05 06:54:00
2:54 AM,53.1,45.0,74,30.07,10.0,NE,5.8,-,N/A,,Clear,50,2013-05-05 07:54:00
3:54 AM,51.1,44.1,77,30.08,10.0,NE,8.1,-,N/A,,Clear,50,2013-05-05 08:54:00
4:54 AM,50.0,42.1,74,30.09,10.0,Calm,Calm,-,N/A,,Clear,0,2013-05-05 09:54:00
5:54 AM,48.0,41.0,77,30.10,10.0,ENE,4.6,-,N/A,,Clear,60,2013-05-05 10:54:00
7:54 AM,48.9,39.9,71,30.12,10.0,ENE,6.9,-,N/A,,Clear,70,2013-05-05 12:54:00
8:54 AM,51.1,41.0,68,30.13,10.0,NE,5.8,-,N/A,,Clear,50,2013-05-05 13:54:00
9:54 AM,54.0,41.0,62,30.12,10.0,ENE,3.5,-,N/A,,Clear,60,2013-05-05 14:54:00
10:54 AM,59.0,42.1,53,30.12,10.0,Calm,Calm,-,N/A,,Clear,0,2013-05-05 15:54:00
11:54 AM,62.1,43.0,50,30.12,10.0,Variable,3.5,-,N/A,,Clear,0,2013-05-05 16:54:00
1:54 PM,71.1,43.0,36,30.07,10.0,NE,5.8,-,N/A,,Clear,50,2013-05-05 18:54:00
2:54 PM,72.0,39.0,30,30.06,10.0,Calm,Calm,-,N/A,,Clear,0,2013-05-05 19:54:00
3:54 PM,73.9,39.9,29,30.04,10.0,Variable,6.9,-,N/A,,Clear,0,2013-05-05 20:54:00
4:54 PM,72.0,39.0,30,30.03,10.0,Variable,6.9,-,N/A,,Clear,0,2013-05-05 21:54:00
5:54 PM,71.1,39.0,31,30.04,10.0,East,5.8,-,N/A,,Clear,100,2013-05-05 22:54:00
6:54 PM,66.9,43.0,42,30.05,10.0,ESE,3.5,-,N/A,,Clear,110,2013-05-05 23:54:00
7:54 PM,64.0,43.0,46,30.06,10.0,East,4.6,-,N/A,,Clear,80,2013-05-06 00:54:00
8:54 PM,57.0,43.0,59,30.07,10.0,ESE,4.6,-,N/A,,Clear,110,2013-05-06 01:54:00
9:54 PM,57.9,42.1,56,30.08,10.0,ESE,3.5,-,N/A,,Clear,110,2013-05-06 02:54:00
10:54 PM,52.0,43.0,71,30.08,10.0,Calm,Calm,-,N/A,,Clear,0,2013-05-06 03:54:00
11:54 PM,51.1,42.1,71,30.07,10.0,Calm,Calm,-,N/A,,Clear,0,2013-05-06 04:54:00